Retour au catalogue

STARLINK-35413

ActifCommunicationsVLEO
NORAD 65886·PAYLOAD·🇺🇸 United States

Lancé Oct 7, 2025 depuis Cape Canaveral Space Force Station

Loading…

Prochains Passages (prochaines 24 heures)

TLE

FraisSource: CelesTrak SupGP

Époque: Sep 14, 2026, 22:59 UTC

1 65886C 25224E   26257.95812500 -.00021116  00000+0 -62335-3 0  2571
2 65886  53.1576 207.7247 0001278  92.2230 336.3828 15.34427550    17

Suivez STARLINK-35413 en temps réel avec AllMySat

Download on the App Store